This is the latest recevied weather packets stored in our database for station/object N3HBJ. If no packets are shown the sender has not sent any weather packets the latest 10 day(s).
| Time | Temp. | Humidity | Pressure | Rain* | Wind** | Luminosity | Snow |
|---|---|---|---|---|---|---|---|
| 1777473796 | 11.11° C | 90% | 1011.9 hPa | 0 mm | - | 74 W/m² | - |
| 1777473037 | 11.11° C | 90% | 1011.9 hPa | 0 mm | - | 79 W/m² | - |
| 1777468079 | 11.11° C | 90% | 1012.1 hPa | 0 mm | - | 63 W/m² | - |
| 1777467618 | 11.11° C | 90% | 1012.4 hPa | 0 mm | - | 54 W/m² | - |
| 1777463861 | 11.11° C | 89% | 1012.6 hPa | 0 mm | - | 51 W/m² | - |
| 1777462962 | 11.11° C | 89% | 1012.6 hPa | 0 mm | - | 49 W/m² | - |
| 1777460090 | 10.56° C | 90% | 1012.7 hPa | 0 mm | - | 14 W/m² | - |
| 1777460083 | 10.56° C | 90% | 1012.8 hPa | 0 mm | - | 14 W/m² | - |
| 1777458459 | 10.56° C | 90% | 1012.7 hPa | 0 mm | - | 0 W/m² | - |
| 1777455444 | 10.56° C | 89% | 1012.6 hPa | 0 mm | - | 0 W/m² | - |
| 1777451231 | 11.11° C | 88% | 1013.1 hPa | 0 mm | - | 0 W/m² | - |
| 1777450924 | 11.11° C | 88% | 1013 hPa | 0 mm | - | 0 W/m² | - |
| 1777447623 | 10.56° C | 89% | 1013.6 hPa | 0 mm | - | 0 W/m² | - |
| 1777442537 | 10.56° C | 89% | 1014.5 hPa | 0 mm | - | 0 W/m² | - |
| 1777441463 | 10.56° C | 89% | 1014.1 hPa | 0 mm | - | 0 W/m² | - |
| 1777440422 | 10.56° C | 89% | 1014.3 hPa | 0 mm | - | 0 W/m² | - |
| 1777438924 | 10.56° C | 89% | 1014.7 hPa | 0 mm | - | 0 W/m² | - |
| 1777438325 | 10.56° C | 89% | 1015 hPa | 0 mm | - | 0 W/m² | - |
| 1777438024 | 10.56° C | 89% | 1015 hPa | 0 mm | - | 0 W/m² | - |
| 1777436823 | 10.56° C | 89% | 1015.4 hPa | 0 mm | - | 0 W/m² | - |
| 1777436065 | 10.56° C | 89% | 1015.3 hPa | 0 mm | - | 0 W/m² | - |
| 1777432610 | 10° C | 89% | 1015.5 hPa | 0 mm | - | 0 W/m² | - |
| 1777432013 | 10° C | 89% | 1015.5 hPa | 0 mm | - | 0 W/m² | - |
| 1777431410 | 10° C | 89% | 1015.9 hPa | 0 mm | - | 0 W/m² | - |
| 1777429605 | 10.56° C | 88% | 1015.7 hPa | 0 mm | - | 0 W/m² | - |
* Rain latest hour (hover to see other rain measurements)
** Current wind speed in m/s (hover to see current wind gust speed)